User: anonymous
Location: Unspecified
(0.0000°N, 0.0000°E)
Time: 07:16:07
(UTC+02:00)
Language:

Cosmos 1263 Rocket - Orbit

View from above orbital plane
View from above orbital plane
View from above satellite
View from above satellite

Ground track
Ground track

The orbit data is extracted from the following two-line orbital elements,

1 12389U 81033B   14205.13154690  .00015951  00000-0  23581-3 0   274
2 12389 082.8734 071.9723 0204347 341.9599 131.6500 15.34618628715391
Epoch (UTC): 24 July 2014 03:09:25
Eccentricity: 0.0204347
inclination: 82.8734°
perigee height: 322 km
apogee height: 602 km
right ascension of ascending node: 71.9723°
argument of perigee: 341.9599°
revolutions per day: 15.34618628
mean anomaly at epoch: 131.6500°
orbit number at epoch: 71539

The dashed part of the orbit path shows where the satellite is in the earth's shadow,  

DLR